Погода в Кашине

Россия / Владимирская область     55°59′52″N   38°51′18″E
темп.,
°C
ветер,
м/с
пор.,
м/с
влажн.,
%
обл.,
%
осадки,
мм/ч
давл.,
гПа
погр.,
м
24 января, пн
пн2400:00−21с11100100 0.0 10369
03:00−22ссз00100100 0.0 10379
06:00−20с11100100 0.0 10379
09:00−21зсз00100100 0.1 10379
12:00−11юз0197100 0.0 103793
15:00−9ююз119634 0.1 103561
18:00−18зюз1110086 0.0 10359
21:00−21ююз11100100 0.0 10349
25 января, вт
вт2500:00−23ююз11100100 0.0 10339
03:00−24ююз11100100 0.1 10319
06:00−24ююз11100100 0.0 102911
09:00−23ю11100100 0.1 102822
12:00−11ююз359593 0.0 1024189
15:00−9ю379698 0.0 1021290
18:00−13ю289993 0.0 1019120
21:00−16ю2699100 0.0 101887
26 января, ср
ср2600:00−17ююв2598100 0.0 101680
03:00−12ююз1396100 0.5 101590
06:00−10юз1196100 0.8 101469
09:00−11зюз009798 1.1 101511
12:00−6ссз2493100 0.2 1015352
15:00−6ссз359395 0.4 1016487
18:00−11сз389773 0.1 1017141
21:00−16сз259858 0.1 101862
27 января, чт
чт2700:00−21ссз1110045 0.0 10199
03:00−24сз1110086 0.0 10199
06:00−25з11100100 0.0 10189
09:00−22ююз11100100 0.0 101823
12:00−13ю2493100 0.0 1017159
15:00−11ю3794100 0.0 1015271
18:00−12ююв399797 0.0 1014221
21:00−13ююв3109782 0.0 1013223
28 января, пт
пт2800:00−14ююв3119677 0.0 1011255
03:00−13ююв4119363 0.0 1010308
06:00−12ююв41294100 0.1 1008356
09:00−11ююв41294100 0.2 1007398
12:00−8ююв51294100 0.1 1006448
15:00−7юв51295100 0.4 1004500
18:00−7ююв51295100 0.9 1003591
21:00−7ююв41095100 1.8 1002523